Victor Value Review

Introduction

Victor Value is a horse racing tipster service that targets long-term profits.

John Burke, the man behind it, has been a popular tipster for a long time, in fact Danny first reviewed his service back in November 2013. Using £100 flat stakes over 12 weeks, Danny made £6,114.25 profit and gave it a big thumbs up. 

Since then, Victor Value has moved to a new stable and I decided to conduct another review to make sure that it's still a service worth following. John claims to have banked £7000 profit to £10 stakes over the last 3 years, so things are going well!

John sends out daily emails with detailed analysis along with a weekly email containing ante-post selections.

I used a 100 point bank for my review and backed every selection with a flat £10 stake.

Results

An excellent start to my Victor Value review with an impressive 25.5 points in the bank already. A nice each way winner at odds of 17.00 was the pick of the bunch. I am hoping to keep the profits coming for the weeks ahead.

DateSelectionTimeCourseWin/EWOddsW/LTotal
21/07/20Amir Kabir 6.40SandownE/W (1pt)7.50£6.25£6.25
21/07/20Setarhe7.15SandownWin (1pt)4.50-£10.00-£3.75
21/07/20Kaloor 7.45SandownWin (1pt)9.00-£10.00-£13.75
22/07/20Ty Rock Brandy5.15NaasE/W (0.5pt)13.00£7.00-£6.75
22/07/20Teddy Boy5.15NaasWin (1pt)9.00-£10.00-£16.75
23/07/20Airgead4.30LeopardstownWin (1pt)9.00-£10.00-£26.75
23/07/20Cartesienne4.30LeopardstownWin (1pt)11.00-£10.00-£36.75
24/07/20Slaney East2.35Down RoyalWin (1pt)12.00-£10.00-£46.75
24/07/20Sunchart3.45Down RoyalWin (1pt)9.00-£10.00-£56.75
25/07/20Mutamaasik2.25AscotWin (1pt)10.00-£10.00-£66.75
25/07/20Blackheath2.25AscotE/W (0.5pt)26.00-£10.00-£76.75
25/07/20Chiefofchiefs 2.25AscotWin (1pt)11.00-£10.00-£86.75
25/07/20Frontispiece 4.10AscotWin (1pt)N/R£0.00-£86.75
25/07/20Western Duke 4.10AscotE/W (1pt)15.00-£10.00-£96.75
25/07/20Speedo Boy5.20AscotWin (1pt)10.00-£10.00-£106.75
25/07/20Shady McCoy1.30YorkWin (1pt)10.00-£10.00-£116.75
25/07/20Tukhoom3.50YorkWin (1pt)7.00-£10.00-£126.75
25/07/20Autumn Flight 3.50YorkWin (1pt)9.00-£10.00-£136.75
25/07/20Roundhay Park 4.25YorkWin (1pt)5.00£40.00-£96.75
25/07/20Look Out Louie 4.25YorkWin (1pt)6.00-£10.00-£106.75
26/07/20Jeremiah2.30AscotE/W (1pt)17.00£192.00£85.25
26/07/20Makram4.50AscotWin (1pt)8.50£75.00£160.25
26/07/20Cruising1.35YorkE/W (0.5pt)41.00-£10.00£150.25
26/07/20Dancing Vega2.10YorkWin (1pt)9.00-£10.00£140.25
26/07/20Golden Force4.30YorkWin (1pt)10.00£90.00£230.25
26/07/20Rayounpour 3.30CurraghWin (1pt)7.50£65.00£295.25
26/07/20Lady Maura4.40CurraghWin (1pt)5.50-£10.00£285.25
27/07/20Takearengo6.45GalwayE/W (0.5pt)13.00-£10.00£275.25
27/07/20Grandmaster Flash6.45GalwayE/W (0.5pt)19.00-£10.00£265.25
27/07/20Dazzling Darren7.15GalwayWin (1pt)7.50-£10.00£255.25

Another 12.9 points banked during week 2 meant an impressive overall profit of 38.42 points in the bank in just 2 weeks.

DateSelectionTimeCourseWin/EWOddsW/LTotal
28/07/20Cape Cavalli 1.45GoodwoodWin (1pt)7.00-£10.00£245.25
28/07/20Fifth Position1.45GoodwoodWin (1pt)9.00-£10.00£235.25
28/07/20Duke Of Hazzard 2.45GoodwoodWin (1pt)7.50-£10.00£225.25
28/07/20Recon Mission3.45GoodwoodWin (1pt)6.00-£10.00£215.25
28/07/20Celsius3.45GoodwoodWin (1pt)4.50-£10.00£205.25
28/07/20Champers Elysees5.45GalwayWin (1pt)6.00£50.00£255.25
28/07/20In From The Cold6.15GalwayE/W (0.5pt)21.00£15.00£270.25
28/07/20On Session6.45GalwayWin (1pt)8.00-£10.00£260.25
28/07/20Nebo6.45GalwayWin (1pt)13.00-£10.00£250.25
29/07/20Dean Street Doll 1.10GoodwoodWin (1pt)12.00-£10.00£240.25
29/07/20Oleg1.45GoodwoodWin (1pt)9.00-£10.00£230.25
29/07/20Rochester House1.45GoodwoodWin (1pt)9.00-£10.00£220.25
29/07/20Win O’Clock2.15GoodwoodWin (1pt)6.00-£10.00£210.25
29/07/20Sarvan2.15GoodwoodWin (1pt)10.00-£10.00£200.25
29/07/20Toro Strike4.20GoodwoodWin (1pt)8.00£70.00£270.25
29/07/20Royal Rendezvous6.45GalwayWin (1pt)10.00-£10.00£260.25
29/07/20Three Musketeers 6.45GalwayE/W (0.5pt)21.00-£10.00£250.25
29/07/20Rewritetherules7.15GalwayWin (1pt)N/R£0.00£250.25
29/07/20All The Answers7.15GalwayWin (1pt)7.00-£10.00£240.25
30/07/20Zabeel Champion1.45GoodwoodE/W (0.5pt)13.00£7.00£247.25
30/07/20Samara Bay 3.45GoodwoodE/W (0.5pt)15.00-£10.00£237.25
30/07/20Acklam Express4.55GoodwoodE/W (1pt)7.00£60.00£297.25
30/07/20The Rubinator 6.15GalwayE/W (0.5pt)19.00£13.00£310.25
30/07/20Buildmeupbuttercup 6.45GalwayWin (1pt)10.00-£10.00£300.25
30/07/20Hearts Are Trumps6.45GalwayE/W (0.5pt)51.00£45.00£345.25
30/07/20Mt Leinster 6.45GalwayWin (1pt)15.00-£10.00£335.25
31/07/20Cepheus1.10GoodwoodWin (1pt)7.00£60.00£395.25
31/07/20Wasmya1.45GoodwoodE/W (0.5pt)21.00-£10.00£385.25
31/07/20Althiqa1.45GoodwoodWin (1pt)8.00-£10.00£375.25
31/07/20Montatham2.45GoodwoodWin (1pt)N/R£0.00£375.25
31/07/20Baltic Baron2.45GoodwoodE/W (0.5pt)26.00-£10.00£365.25
31/07/20Peretto4.20GoodwoodWin (1pt)6.50-£10.00£355.25
31/07/20Thank You Next4.20GoodwoodWin (1pt)9.00-£10.00£345.25
31/07/20The Jam Man6.15GalwayE/W (0.5pt)26.00-£10.00£335.25
31/07/20My Sister Sarah6.15GalwayWin (1pt)11.00-£10.00£325.25
31/07/20Great White Shark6.15GalwayWin (1pt)11.00£100.00£425.25
31/07/20Portmore Lough7.45GalwayWin (1pt)8.00-£10.00£415.25
31/07/20Tesseract7.45GalwayWin (1pt)11.00-£10.00£405.25
01/08/20Rewaayat1.50GoodwoodWin (1pt)4.50-£10.00£395.25
01/08/20King’s Advice2.25GoodwoodWin (1pt)9.00-£10.00£385.25
01/08/20Open Wide3.35GoodwoodE/W (0.5pt)34.00-£10.00£375.25
01/08/20Atlanta’s Boy3.35GoodwoodE/W (0.5pt)21.00-£10.00£365.25
01/08/20Swindler3.35GoodwoodWin (1pt)13.00-£10.00£355.25
01/08/20Tomfre4.10GoodwoodWin (1pt)8.50-£10.00£345.25
01/08/20Takarengo5.15GoodwoodE/W (0.5pt)21.00-£10.00£335.25
02/08/20Dragon Of Malta2.45GalwayWin (1pt)10.00-£10.00£325.25
02/08/20Darkened3.50GalwayWin (1pt)4.50£35.00£360.25
02/08/20Flaming Moon4.20GalwayWin (1pt)12.00-£10.00£350.25
02/08/20On As Session4.20GalwayE/W (0.5pt)17.00£11.00£361.25
03/08/20Mountain Park3.15HaydockWin (1pt)4.33£33.00£394.25
03/08/20Blairmayne2.35NaasWin (1pt)10.00-£10.00£384.25

A small loss of 2.1 points during week 3. Still in great shape with an impressive 36.3 points in the bank.

DateSelectionTimeCourseWin/EWOddsW/LTotal
08/08/20Equitation 1.50AscotE/W (0.5pt)9.00-£10.00£374.25
08/08/20Dazzling Dan 1.50AscotE/W (0.5pt)7.50-£10.00£364.25
08/08/20Via Serendipity2.25AscotE/W (0.5pt)9.00£50.00£414.25
08/08/20Game Player2.25AscotE/W (0.5pt)7.00-£10.00£404.25
08/08/20Eddystone Rock 3.00AscotE/W (0.5pt)15.00-£10.00£394.25
08/08/20Kaloor 3.00AscotWin (1pt)5.50-£10.00£384.25
08/08/20Jeremiah3.35AscotE/W (0.5pt)6.50-£10.00£374.25
08/08/20Fox Vardy3.35AscotE/W (0.5pt)6.00£1.25£375.50
08/08/20Tomfre4.00NewmarketE/W (0.5pt)6.00£1.25£376.75
08/08/20Duesenberg4.35NewmarketWin (1pt)9.00-£10.00£366.75
08/08/20Goodnight Girl 3.05CorkE/W (0.5pt)17.00-£10.00£356.75
08/08/20Elzaamone 3.05CorkE/W (0.5pt)8.00-£10.00£346.75
09/08/20Regal Reality3.25SalisburyE/W (0.5pt)9.00£50.00£396.75
09/08/20East Street Revue2.30ThirskWin (1pt)8.50-£10.00£386.75
09/08/20Law Of Indices3.10CurraghE/W (0.5pt)11.00-£10.00£376.75
09/08/20Hello Youmzain2.50DeauvilleE/W (0.5pt)10.00£6.25£383.00
10/08/20True Blue Moon5.30ChesterWin (1pt)6.00-£10.00£373.00
10/08/20Major Jumbo 6.30ChesterWin (1pt)3.75-£10.00£363.00

Week 4 and just the 2 winners resulted in a 7 point loss. I was still in great shape overall with a total of 29.3 points profit.

DateSelectionTimeCourseWin/EWOddsW/LTotal
11/08/20Turkestan 1.25HaydockE/W (0.5pt)7.50-£10.00£353.00
11/08/20Buniann2.25HaydockE/W (0.5pt)N/R£0.00£353.00
11/08/20Hawridge Flyer 5.30HaydockE/W (0.5pt)N/R£0.00£353.00
12/08/20High Altitude1.00Gowran ParkE/W (0.5pt)15.00-£10.00£343.00
12/08/20Centroid2.00Gowran ParkWin (1pt)8.00-£10.00£333.00
13/08/20Shoshone Warrior 3.30LeopardstownE/W (0.5pt)11.00-£10.00£323.00
13/08/20Queen2.20SalisburyE/W (0.5pt)13.00-£10.00£313.00
14/08/20Round The Island 1.15PontefractWin (1pt)13.00-£10.00£303.00
14/08/20Many A Star2.20PontefractWin (1pt)7.00-£10.00£293.00
14/08/20Prince Imperial 4.20PontefractWin (1pt)N/R£0.00£293.00
15/08/20Jumby1.50NewburyWin (1pt)5.50-£10.00£283.00
15/08/20Jahbath2.25NewburyWin (1pt)7.50-£10.00£273.00
15/08/20Hukum3.00NewburyWin (1pt)5.50£45.00£318.00
15/08/20Namos3.35NewburyWin (1pt)11.00-£10.00£308.00
15/08/20Mythologic4.15DundalkE/W (0.5pt)12.00-£10.00£298.00
15/08/20Verimli4.15DundalkWin (1pt)6.50-£10.00£288.00
16/08/20Aweedram1.50NewburyWin (1pt)7.00-£10.00£278.00
16/08/20 Turntable1.50NewburyWin (1pt)12.00-£10.00£268.00
16/08/20 Danyah2.25NewburyWin (1pt)4.50-£10.00£258.00
16/08/20Hortzader2.05RiponWin (1pt)4.00-£10.00£248.00
16/08/20Staxton3.15RiponWin (1pt)7.50£65.00£313.00
16/08/20Golden Apollo3.15RiponE/W (0.5pt)17.00-£10.00£303.00
16/08/20Abate3.15RiponE/W (0.5pt)26.00-£10.00£293.00

Another profit of 4.67 points during week 5 meant I was an impressive 33.97 points up for my Victor Value review overall.

DateSelectionTimeCourseWin/EWOddsW/LTotal
19/08/20Arecibo 1.45YorkWin (1pt)8.00-£10.00£283.00
19/08/20Here And Now 3.45YorkE/W (1pt)13.00-£20.00£263.00
19/08/20Pink Sands4.50YorkWin (1pt)7.50-£10.00£253.00
19/08/20Pure Dreamer4.50YorkWin (1pt)6.00-£10.00£243.00
19/08/20Cairn Island4.50YorkWin (1pt)6.00£50.00£293.00
20/08/20Montatham2.45YorkWin (1pt)8.50£75.00£368.00
20/08/20Walhaan2.45YorkE/W (0.5pt)17.00-£10.00£358.00
20/08/20Bonnyrigg 4.20YorkWin (1pt)6.00-£10.00£348.00
20/08/20Dancing Vega 4.50YorkWin (1pt)5.00-£10.00£338.00
20/08/20Born By The Sea5.15KillarneyWin (1pt)11.00-£10.00£328.00
20/08/20Recon Mission6.30ChesterWin (1pt)9.50-£10.00£318.00
21/08/20King’s Caper1.45YorkE/W (1pt)10.00-£20.00£298.00
21/08/20Moss Gill 3.15YorkE/W (0.5pt)41.00£61.67£359.67
21/08/20Angel Power4.15YorkWin (1pt)7.50£65.00£424.67
21/08/20Grand Rock4.50YorkE/W (1pt)13.00-£20.00£404.67
21/08/20Visinari4.50YorkWin (1pt)9.00-£10.00£394.67
21/08/20Magnetised4.50YorkE/W (0.5pt)17.00-£10.00£384.67
22/08/20Midnight’s Legacy 2.25YorkE/W (1pt)11.00-£20.00£364.67
22/08/20Fujaira Prince3.40YorkWin (1pt)7.50£65.00£429.67
22/08/20Ghostwatch3.40YorkE/W (1pt)17.00-£20.00£409.67
22/08/20Trushan3.40YorkWin (1pt)9.00-£10.00£399.67
22/08/20Cape Cavalii4.40YorkWin (1pt)9.00-£10.00£389.67
22/08/20Derevo 4.40YorkWin (1pt)9.00-£10.00£379.67
22/08/20Raaeq3.15SandownWin (1pt)7.50-£10.00£369.67
23/08/20Saaheq 2.00SandownWin (1pt)10.00-£10.00£359.67
23/08/20Northern Beau2.15CartmelWin (1pt)6.00-£10.00£349.67
23/08/20Monaasib2.50NaasWin (1pt)7.00-£10.00£339.67

10.5 points lost during week 6 but I was still in a good position with 23.46 points in the bank for my Victor Value review overall.

DateSelectionTimeCourseWin/EWOddsW/LTotal
25/08/20Rux Ruxx4.35CatterickWin (1pt)7.50-£10.00£329.67
25/08/20Verhoyen3.15CorkWin (1pt)9.00-£10.00£319.67
25/08/20Mister Trader 3.15CorkWin (1pt)7.50-£10.00£309.67
26/08/20Future Proof 6.15BellewstownWin (1pt)15.00-£10.00£299.67
27/08/20East Street Revue 3.00BeverleyWin (0.5pt)17.00£80.00£379.67
27/08/20Airglow3.00BeverleyWin (0.5pt)12.00-£5.00£374.67
27/08/20Alpha Delphini3.00BeverleyWin (1pt)13.00-£10.00£364.67
27/08/20Dakota Gold3.00BeverleyWin (1pt)5.00-£10.00£354.67
27/08/20HMS President4.05BeverleyWin (2pt)3.50-£20.00£334.67
27/08/20Stormy Belle5.40BellewstownWin (1pt)7.50-£10.00£324.67
28/08/20Ubuntu2.40CurraghE/W (0.5pt)13.00£15.00£339.67
28/08/20Quizical3.40CurraghE/W (1pt)13.00£20.00£359.67
28/08/20Strongbowe3.40CurraghE/W (0.5pt)19.00-£10.00£349.67
28/08/20Tresorier4.40CurraghWin (1pt)5.50£45.00£394.67
28/08/20Owney Madden4.50NewmarketE/W (1pt)8.00-£20.00£374.67
29/08/20 Abstemious2.45NewmarketWin (1pt)8.00-£10.00£364.67
29/08/20Moon King 3.20NewmarketWin (1pt)5.50-£10.00£354.67
29/08/20Milltown Star2.25GoodwoodE/W (1pt)13.00-£20.00£334.67
29/08/20Sextant 2.40WindsorWin (1pt)9.00-£10.00£324.67
30/08/20Chairmanoftheboard2.25GoodwoodWin (1pt)4.50-£10.00£314.67
30/08/20Louie De Palma2.25GoodwoodE/W (1pt)9.00-£20.00£294.67
30/08/20Cloak Of Spirits3.35GoodwoodWin (1pt)N/R£0.00£294.67
30/08/20Fortunes Hiding3.15PerthE/W (1pt)11.00-£20.00£274.67
30/08/20Imada3.15PerthWin (1pt)4.00-£10.00£264.67
31/08/20Hesslewood1.20RiponWin (1pt)7.00-£10.00£254.67
31/08/20Roman Dynasty1.50RiponE/W (1pt)9.00-£20.00£234.67

Week 7 and my bank was wiped out. A 24 point loss left me 0.53 points in the red overall. Still plenty of time to turn things around but this was a nasty set back for my Victor Value review.

DateSelectionTimeCourseWin/EWOddsW/LTotal
01/09/20 Blue And Yellow7.00Newton AbbotWin (1pt)6.00-£10.00£224.67
01/09/20True Belief3.15KemptonWin (1pt)8.00-£10.00£214.67
01/09/20Delilah Park3.45KemptonE/W (1pt)7.50-£20.00£194.67
02/09/20Indigo Times8.45WolverhamptonE/W (1pt)10.00£20.00£214.67
03/09/20Boudica Bay4.45NewcastleE/W (1pt)8.00-£20.00£194.67
04/09/20Look Closely3.40AscotWin (1pt)5.00-£10.00£184.67
04/09/20Gin Palace4.50AscotWin (1pt)6.00-£10.00£174.67
04/09/20Cockalorum5.25HaydockWin (1pt)5.50-£10.00£164.67
04/09/20Shanroe3.10Down RoyalWin (1pt)N/R£0.00£164.67
05/09/20Tabdeed3.25HaydockE/W (1pt)11.00-£20.00£144.67
05/09/20Perfect Inch2.30AscotWin (1pt)8.50-£10.00£134.67
05/09/20My Frankel 3.05AscotWin (1pt)5.00-£10.00£124.67
05/09/20Spanish City3.40AscotE/W (1pt)11.00-£20.00£104.67
05/09/20Blue Mist4.15AscotWin (1pt)6.00-£10.00£94.67
05/09/20Society Lion4.15AscotWin (1pt)7.00-£10.00£84.67
05/09/20Cape Coast2.50HaydockE/W (1pt)11.00-£20.00£64.67
05/09/20Aplomb4.00HaydockWin (1pt)7.00-£10.00£54.67
06/09/20Thibaan1.30YorkWin (1pt)4.33-£10.00£44.67
06/09/20Arctic Fox1.30YorkE/W (1pt)11.00-£20.00£24.67
06/09/20Royal Content3.40YorkWin (1pt)6.00-£10.00£14.67
06/09/20Peaches And Cream4.45BallinrobeWin (1pt)12.00-£10.00£4.67
06/09/20Portmore Lough 4.45BallinrobeWin (1pt)8.50-£10.00-£5.33

7 points banked during week 8 meant I was back in a profit overall of 6.46 points.

DateSelectionTimeCourseWin/EWOddsW/LTotal
09/09/20A Boy Named Ivy 1.40DoncasterWin (1pt)8.50-£10.00-£15.33
09/09/20Cloak Of Spirits 3.15DoncasterWin (1pt)6.00-£10.00-£25.33
09/09/20Strait Of Hormuz3.45DoncasterWin (1pt)7.50£65.00£39.67
09/09/20Rise Hall3.45DoncasterE/W (0.5pts)21.00-£10.00£29.67
09/09/20Terentum Star4.15DoncasterE/W (0.5pts)17.00-£10.00£19.67
10/09/20Vivionn3.15DoncasterWin (1pt)8.50-£10.00£9.67
10/09/20Broughton’s Gold3.45DoncasterE/W (1pt)8.00-£20.00-£10.33
10/09/20Breanski 4.15DoncasterE/W (1pt)10.00£20.00£9.67
11/09/20Sleeping Lion 1.40DoncasterWin (1pt)6.00-£10.00-£0.33
11/09/20Tranchee 2.10DoncasterE/W (1pt)7.50£86.67£86.34
12/09/20Arecibo2.25DoncasterWin (1pt)8.50-£10.00£76.34
12/09/20Mountain Peak2.25DoncasterE/W (1pt)15.00-£20.00£56.34
12/09/20Persia2.35LeopardstownWin (1pt)8.00-£10.00£46.34
12/09/20Buildmeupbuttercup2.35LeopardstownWin (1pt)8.50-£10.00£36.34
12/09/20Sottsass4.10LeopardstownWin (1pt)7.00-£10.00£26.34
12/09/20Music To My Ears5.15LeopardstownWin (1pt)4.50-£10.00£16.34
13/09/20Treacherous 2.00CurraghWin (1pt)9.00-£10.00£6.34
13/09/20Big Gossey2.00CurraghE/W (1pt)10.00-£20.00-£13.66
13/09/20Sonaiyla3.10CurraghE/W (1pt)14.00£33.33£19.67
13/09/20Sonnyboyliston5.50CurraghWin (1pt)7.50£65.00£84.67
13/09/20Wilderness5.50CurraghE/W (1pt)13.00-£20.00£64.67

Week 9 and just the 1 winner meant a loss of 4.5 points. This left me 1.96 points in the green for my review overall.

DateSelectionTimeCourseWin/EWOddsW/LTotal
19/09/20Heights Of Abraham 1.20AyrWin (1pt)8.00-£10.00£54.67
19/09/20Bernardo O’Reilly2.30AyrE/W (1pt)21.00-£20.00£34.67
19/09/20Atalanta’s Boy2.30AyrE/W (1pt)10.00-£20.00£14.67
19/09/20Wise Counsel3.40AyrE/W (1pt)10.00-£20.00-£5.33
19/09/20Bielsa3.40AyrE/W (1pt)13.00-£20.00-£25.33
19/09/20Johan 4.15AyrWin (1pt)7.50£65.00£39.67
19/09/20The City’s Phantom2.15NewburyWin (1pt)9.50-£10.00£29.67
19/09/20Kingbrook2.15NewburyWin (1pt)12.00-£10.00£19.67

An impressive 23.58 points profit during week 10 meant I had banked 25.55 points profit for my review overall.

DateSelectionTimeCourseWin/EWOddsW/LTotal
25/09/20Ummalnar 1.50NewmarketWin6.00-£10.00£9.67
25/09/20Kattani 4.45NewmarketWin5.00-£10.00-£0.33
25/09/20Getaway Gorgeous3.15ListowelWin6.00-£10.00-£10.33
25/09/20Treacysenniscorthy 4.25ListowelWin6.50-£10.00-£20.33
26/09/20Gear Up1.50NewmarketWin5.50-£10.00-£30.33
26/09/20Bell Rock3.35NewmarketE/W (1pt)12.00£17.50-£12.83
26/09/20King Carney 3.35NewmarketE/W (1pt)17.00-£20.00-£32.83
26/09/20Lucander3.35NewmarketE/W (1pt)21.00£40.00£7.17
26/09/20Mystery Angel 4.10NewmarketWin11.00£100.00£107.17
26/09/20Count D’orsay 2.40HaydockWin5.50-£10.00£97.17
26/09/20Quick Look 3.10HaydockWin8.00-£10.00£87.17
26/09/20Mythologic4.50CurraghE/W (1pt)15.00£36.67£123.84
26/09/20Mudlahhim4.50CurraghE/W (1pt)17.00-£20.00£103.84
26/09/20Humm Baby2.50ListowelWinN/R£0.00£103.84
27/09/20Bernardo O’Reilly4.25NottinghamWin (2pts)5.00-£20.00£83.84
27/09/20Roulston Scar4.25NottinghamWin8.50£75.00£158.84
27/09/20 A Step To Far2.30CurraghE/W (1pt)9.00£106.67£265.51
27/09/20Sure Cert 5.20CurraghWin5.00-£10.00£255.51

An 8 point loss during week 11 meant I was still 17.55 points profit for my review overall heading into my last week.

DateSelectionTimeCourseWin/EWOddsW/LTotal
01/10/20Ice Lord 3.05SalisburyE/W (1pt)12.00£26.67£235.51
01/10/20Vixen 4.15SalisburyE/W (1pt)9.00-£20.00£215.51
02/10/20Rochester House 3.40AscotWin8.00£70.00£285.51
03/10/20Last Empire1.55AscotE/W (1pt)AB£0.00£285.51
03/10/20King Ottokar3.05AscotWinAB£0.00£285.51
03/10/20Orbaan3.05AscotE/W (1pt)AB£0.00£285.51
03/10/20Feliciana De Vega2.45NewmarketE/W (1pt)15.00-£20.00£265.51
03/10/20Half Light2.45NewmarketE/W (1pt)13.00£30.00£295.51
03/10/20Ey Up It’s Maggie3.25RedcarE/W (0.5pts)34.00-£10.00£285.51
04/10/20Thunder Beauty1.50LongchampE/W (1pt)9.00-£20.00£265.51
04/10/20Gold Trip3.05LongchampE/W (0.5pts)34.00-£10.00£255.51
04/10/20Tawkeel3.50LongchampWin5.00-£10.00£245.51
04/10/20Air De Valse4.25LongchampE/W (1pt)12.00-£20.00£225.51
04/10/20Tropbeau4.55LongchampE/W (0.5pts)17.00-£10.00£215.51
06/10/20Brentford Hope2.20LeicesterWin3.00-£10.00£205.51
06/10/20Ainsdale2.50LeicesterWin2.67-£10.00£195.51
07/10/20Bigmartre3.20LudlowE/W (1pt)9.50-£20.00£175.51
07/10/20Back On The Lash4.30LudlowWinN/R£0.00£175.51
07/10/20Demachine4.30LudlowWinN/R£0.00£175.51

A loss of 9.7 points during what was meant to have been my last week. I decided to continue for at least another 4 weeks to make my mind up on whether to recommend this service or not. 

After 12 weeks I had a small profit of 7.8 points.

DateSelectionTimeCourseWin/EWOddsW/LTotal
08/10/20Mr Medic 2.30ExeterWin6.50-£10.00£165.51
08/10/20Navajo Star7.30ChelmsfordWin9.00-£10.00£155.51
09/10/20Luncies4.10NewmarketE/W (1pt)15.00-£20.00£135.51
09/10/20Baronial Pride2.05YorkE/W (1pt)17.00-£20.00£115.51
09/10/20Shelir2.05YorkE/W (1pt)11.00£15.00£130.51
09/10/20Zeeband2.40YorkWin7.50-£10.00£120.51
09/10/20Strawberry Rock 2.40YorkWin6.00-£10.00£110.51
10/10/20Cadillac2.55NewmarketE/W (1pt)9.50-£20.00£90.51
10/10/20St Mark’s Basilica2.55NewmarketE/W (0.5pts)23.00£137.50£228.01
10/10/20Coltrane3.35NewmarketWin10.00-£10.00£218.01
10/10/20Summer Moon3.35NewmarketE/W (1pt)29.00£60.00£278.01
10/10/20Heights Of Abraham1.30YorkE/W (1pt)13.00-£20.00£258.01
10/10/20Bielsa3.10YorkE/W (1pt)13.00-£20.00£238.01
10/10/20Laugh A Minute 3.10YorkE/W (1pt)21.00-£20.00£218.01
11/10/20King’s Vow3.40CurraghE/W (1pt)15.00-£20.00£198.01
11/10/20Shoshone Warrior3.40CurraghWin12.00-£10.00£188.01
11/10/20Roaring Bull 4.00LimerickE/W (1pt)13.00-£20.00£168.01
11/10/20Moyhenna4.00LimerickWin7.50-£10.00£158.01
12/10/20Northernpowerhouse2.30MusselburghE/W (1pt)9.00-£20.00£138.01
14/10/20Sky Pirate4.10WetherbyWin6.50-£10.00£128.01
14/10/20Ecu De La Noverie4.10WetherbyE/W (1pt)13.00-£20.00£108.01
14/10/20Destined To Shine5.15WetherbyWin5.00-£10.00£98.01
14/10/20Vado Forte5.15WetherbyWin9.00-£10.00£88.01
14/10/20Kryptos2.35NottinghamWin5.50-£10.00£78.01

Week 13 and a 16.8 points loss meant I was now 9 points in the red overall.

DateSelectionTimeCourseWin/EWOddsW/LTotal
16/10/20Emiyn2.00LeopardstownWin6.50-£10.00£68.01
16/10/20Edgewood1.45HaydockWin7.50-£10.00£58.01
16/10/20Give It Some Teddy 2.48HaydockWin9.00-£10.00£48.01
16/10/20Drakensberg5.15DundalkWin7.00-£10.00£38.01
16/10/20St George’s Head 6.15DundalkWin11.00-£10.00£28.01
17/10/20Dawn Patrol 1.20AscotE/W (1pt)13.00-£20.00£8.01
17/10/20Sonaiyla1.55AscotE/W (1pt)17.00-£20.00-£11.99
17/10/20Roseman3.05AscotE/W (0.5pts)34.00£36.25£24.26
17/10/20Lord North3.40AscotWin7.00-£10.00£14.26
17/10/20Raaeq4.15AscotWin5.00-£10.00£4.26
17/10/20Orbaan 4.15AscotE/W (1pt)15.00-£20.00-£15.74
18/10/20Lightly Squeeze3.10Ffos LasE/W (1pt)9.00-£20.00-£35.74
18/10/20Brian Boranha4.33SedgefieldE/W (1pt)9.50£5.63-£30.11
18/10/20Lakemilan5.00CorkWin7.00-£10.00-£40.11
18/10/20Use And Them5.00CorkWin8.50-£10.00-£50.11
18/10/20Simply True 4.50NaasE/W (1pt)15.00-£20.00-£70.11
19/10/20Iconic Queen 1.45PontefractWin7.50-£10.00-£80.11
19/10/20Percy’s Pride 1.45PontefractE/W (0.5pts)21.00-£10.00-£90.11

Week 14 and a very nice profit of 20 points banked. That has left my Victor Value review 11.23 points in profit overall.

DateSelectionTimeCourseWin/EWOddsW/LTotal
23/10/20Captain Tom Cat3.00CheltenhamWin6.50£55.00-£35.11
23/10/20Up The Straight 3.00CheltenhamE/W (1pt)15.00£25.00-£10.11
23/10/20Bernardo O’Reilly2.40DoncasterE/W (1pt)15.00-£20.00-£30.11
23/10/20Dazzling Dan 2.40DoncasterE/W (1pt)13.00-£20.00-£50.11
24/10/20Tobefair 3.15CheltenhamWin7.50-£10.00-£60.11
24/10/20Neville’s Cross3.15CheltenhamWin6.50-£10.00-£70.11
24/10/20Cloth Cap3.50CheltenhamWin9.00-£10.00-£80.11
24/10/20Manofthemountain3.50CheltenhamWin5.50-£10.00-£90.11
24/10/20Mac Swiney2.55DoncasterE/W (0.5pts)19.00£112.50£22.39
24/10/20Existent3.35NewburyWin7.00-£10.00£12.39
25/10/20One Style1.22AintreeWin8.00-£10.00£2.39
25/10/20Minella Celebration 1.22AintreeWin8.00£70.00£72.39
25/10/20Midnight Shadow1.57AintreeWin10.00-£10.00£62.39
25/10/20Magic Saint1.57AintreeWin8.50-£10.00£52.39
25/10/20Acey Milan2.32AintreeWin9.00£80.00£132.39
25/10/20En Meme Temps3.42AintreeE/W (1pt)13.00-£20.00£112.39

A disaster during week 15 as all my profit was wiped out again with a loss of 27.5 points and which meant I was back to 16.26 points in the red overall.

DateSelectionTimeCourseWin/EWOddsW/LTotal
30/10/20Two For Gold2.10WetherbyWin4.00-£10.00£102.39
30/10/20Louis Vac Pouch2.10WetherbyE/W (1pt)11.00-£20.00£82.39
30/10/20Smith’s Cross3.10WetherbyE/W (1pt)N/R£0.00£82.39
31/10/20Dandolo Du Gite1.35WetherbyWin7.50-£10.00£72.39
31/10/20Well Smitten1.35WetherbyE/W (1pt)11.00-£20.00£52.39
31/10/20Sam Spinner3.20WetherbyWin8.00-£10.00£42.39
31/10/20Sebastopol3.05AscotE/W (1pt)N/R£0.00£42.39
31/10/20Commanche Red3.40AscotWin6.00-£10.00£32.39
31/10/20Militarian3.40AscotE/W (0.5pts)17.00£15.00£47.39
31/10/20Drop The Anchor 1.50Down RoyalE/W (1pt)7.50-£20.00£27.39
31/10/20Sizing Pottsie 3.00Down RoyalWin13.00-£10.00£17.39
01/11/20Deadheat3.20CorkWin6.00-£10.00£7.39
01/11/20Out Sam3.20CorkE/W (1pt)15.00-£20.00-£12.61
01/11/20Sam Brown2.40CarlisleWin7.50-£10.00-£22.61
02/11/20Kodiac Prince1.30CurraghE/W (1pt)21.00-£20.00-£42.61
02/11/20Miss Myers1.30CurraghE/W (1pt)15.00-£20.00-£62.61
02/11/20Gregory’s Gift2.40CurraghWin10.00-£10.00-£72.61
02/11/20Grace To Grace3.15CurraghWin7.50-£10.00-£82.61
02/11/20Ashrun3.15CurraghE/W (1pt)21.00-£20.00-£102.61
02/11/20Tiger Moth3.15CurraghWin8.00-£10.00-£112.61
03/11/20Glen Forsa2.25ExeterE/W (1pt)9.00-£20.00-£132.61
03/11/20Classic Ben3.25ExeterWin11.00-£10.00-£142.61
03/11/20Everlanes3.25ExeterE/W (1pt)13.00-£20.00-£162.61
04/11/20Good Effort2.30LingfieldWin4.00£30.00-£132.61
05/11/20Fugitives Drift2.30NewburyWin6.00-£10.00-£142.61
05/11/20Azzerti3.05NewburyE/W (1pt)7.50-£20.00-£162.61
>

BEST Betting System Review Updates - Straight to your Inbox!